P/2006 T1 ( Levy )

Japanese version
Home page
Total 6,336 html files since Dec. 4, 1995
Updated on April 20, 2007

---------------------------------------------------------------------

* Profile

Discovery Date October 2, 2006
Magnitude 10.5 mag
Discoverer David H. Levy (Tucson, AZ)

* Pictures

* Orbital Elements

T 2006 Oct. 7.4282 TT                                   MPC
q   0.989464             (2000.0)            P               Q
n   0.1879806      Peri.  179.4501      -0.1613147      -0.9370324
a   3.018057       Node   279.8052      +0.9042616      -0.0146095
e   0.672152       Incl.   18.3214      +0.3953334      -0.3489366
P   5.24
From 290 observations 2006 Oct. 2-Dec. 1.

* Finding Charts

* Magnitudes Graph

        H = 20  G = 0.15                    [  ,-6]  (              - 2006 Oct. 1)
        m1 = 9 + 5 log d + 70 log r(t + 6)  [-6,  ]  (2006 Oct. 1 -              )

---------------------------------------------------------------------

The orbital elements are published on M.P.E.C. 2006-X54.
The charts are made with StellaNavigator Ver.2.0 for Windows (AstroArts / ASCII).
The magnitudes graphs are made with Comet for Windows.

---------------------------------------------------------------------

Copyright(C) 1995-2008 Seiichi Yoshida (comet@aerith.net). All rights reserved.